Weather History for Fort Myers Airport, FL

Change the Weather History Date:

Monday, December 10, 2012

  Actual Average Record
Temperature  
Mean Temperature 74 °F -  
Max Temperature 84 °F 77 °F 87 °F (1986)
Min Temperature 64 °F 57 °F 39 °F (1996)
Cooling Degree Days 9    
Growing Degree Days 24 (Base 50)    
Moisture  
Dew Point 69 °F    
Average Humidity 87    
Maximum Humidity 100    
Minimum Humidity 63    
Precipitation  
Precipitation 0.41 in - - ()
Sea Level Pressure  
Sea Level Pressure 29.96 in    
Wind  
Wind Speed 5 mph (South)    
Max Wind Speed 16 mph    
Max Gust Speed 23 mph    
Visibility 8 miles    
Events Fog , Rain    
Averages and records for this station are not official NWS values.
T = Trace of Precipitation, MM = Missing Value Source: NWS Daily Summary

Daily Weather History Graph

Daily Weather History Graph

Search for Another Location

Airport:

Trip Planner

Search our weather history database for the weather conditions in past years. The results will help you decide how hot, cold, wet, or windy it might be!

Date:

Astronomy

Dec. 10, 2012 Rise Set
Actual Time 7:04 AM EST 5:35 PM EST
Civil Twilight 6:39 AM EST 6:00 PM EST
Nautical Twilight 6:10 AM EST 6:29 PM EST
Astronomical Twilight 5:42 AM EST 6:57 PM EST
Moon 3:57 AM EST (12/10) 3:15 PM EST (12/10)
Length of Visible Light 11h 21m
Length of Day
10h 30m
Waning Crescent, 10% of the Moon is Illuminated
Dec 10
Waning Crescent
Dec 13
New
Dec 20
First Quarter
Dec 28
Full
Jan 4
Last Quarter

Hourly Weather History & Observations

Time (EST) Temp. Heat Index Dew Point Humidity Pressure Visibility Wind Dir Wind Speed Gust Speed Precip Events Conditions
12:53 AM 68.0 °F - 64.9 °F 90% 30.01 in 10.0 mi Calm Calm - N/A   Partly Cloudy
1:53 AM 68.0 °F - 64.9 °F 90% 30.00 in 10.0 mi Calm Calm - N/A   Mostly Cloudy
2:53 AM 66.9 °F - 64.9 °F 93% 29.98 in 10.0 mi Calm Calm - N/A   Clear
3:53 AM 64.9 °F - 64.0 °F 97% 29.97 in 9.0 mi Calm Calm - N/A   Partly Cloudy
4:53 AM 64.9 °F - 63.0 °F 93% 29.97 in 10.0 mi Calm Calm - N/A   Clear
5:53 AM 64.9 °F - 64.0 °F 97% 29.97 in 10.0 mi Calm Calm - N/A   Partly Cloudy
6:53 AM 64.9 °F - 64.0 °F 97% 29.98 in 10.0 mi Calm Calm - N/A   Clear
7:07 AM 64.4 °F - 64.4 °F 100% 29.99 in 10.0 mi Calm Calm - N/A   Scattered Clouds
7:15 AM 64.4 °F - 62.6 °F 94% 29.99 in 10.0 mi SE 3.5 mph - N/A   Mostly Cloudy
7:29 AM 66.2 °F - 66.2 °F 100% 29.99 in 0.5 mi SE 4.6 mph - N/A   Overcast
7:48 AM 66.2 °F - 66.2 °F 100% 30.00 in 0.2 mi SSE 3.5 mph - N/A Fog Fog
7:53 AM 66.9 °F - 66.9 °F 100% 29.99 in 0.2 mi SSE 3.5 mph - N/A Fog Fog
8:53 AM 71.1 °F - 71.1 °F 100% 30.00 in 0.2 mi SSE 6.9 mph - N/A Fog Fog
9:11 AM 71.6 °F - 71.6 °F 100% 30.01 in 0.5 mi SSE 8.1 mph - N/A   Overcast
9:24 AM 71.6 °F - 71.6 °F 100% 30.00 in 1.0 mi SSE 5.8 mph - N/A   Overcast
9:36 AM 71.6 °F - 71.6 °F 100% 30.00 in 8.0 mi SSE 6.9 mph - N/A   Overcast
9:53 AM 72.0 °F - 72.0 °F 100% 30.00 in 10.0 mi SSE 9.2 mph - N/A   Overcast
10:06 AM 75.2 °F - 71.6 °F 89% 30.00 in 10.0 mi SSE 9.2 mph - N/A   Mostly Cloudy
10:53 AM 80.1 °F 83.8 °F 72.0 °F 76% 29.98 in 10.0 mi South 11.5 mph - N/A   Scattered Clouds
11:53 AM 82.9 °F 87.5 °F 71.1 °F 67% 29.95 in 10.0 mi South 10.4 mph - N/A   Clear
12:19 PM 82.4 °F 86.3 °F 69.8 °F 66% 29.95 in 10.0 mi South 12.7 mph - N/A   Mostly Cloudy
12:38 PM 82.4 °F 87.2 °F 71.6 °F 70% 29.94 in 10.0 mi SSW 11.5 mph - N/A   Mostly Cloudy
12:53 PM 84.9 °F 90.1 °F 71.1 °F 63% 29.93 in 10.0 mi SSW 16.1 mph 23.0 mph N/A   Mostly Cloudy
1:53 PM 82.9 °F 87.5 °F 71.1 °F 67% 29.91 in 10.0 mi SSW 13.8 mph - N/A   Scattered Clouds
2:34 PM 82.4 °F 87.2 °F 71.6 °F 70% 29.91 in 10.0 mi South 12.7 mph - N/A   Mostly Cloudy
2:53 PM 82.0 °F 86.3 °F 71.1 °F 69% 29.89 in 10.0 mi South 12.7 mph 21.9 mph N/A   Mostly Cloudy
3:02 PM 82.4 °F 87.2 °F 71.6 °F 70% 29.89 in 10.0 mi South 15.0 mph - N/A   Scattered Clouds
3:53 PM 81.0 °F 84.9 °F 71.1 °F 72% 29.89 in 10.0 mi South 13.8 mph - N/A   Mostly Cloudy
4:53 PM 80.1 °F 83.8 °F 72.0 °F 76% 29.90 in 10.0 mi South 15.0 mph - N/A   Overcast
5:53 PM 78.1 °F - 72.0 °F 81% 29.91 in 10.0 mi SSW 9.2 mph - N/A   Overcast
6:53 PM 77.0 °F - 72.0 °F 84% 29.92 in 10.0 mi South 9.2 mph - N/A   Mostly Cloudy
7:53 PM 75.9 °F - 72.0 °F 87% 29.93 in 10.0 mi South 8.1 mph - 0.00 in   Mostly Cloudy
8:53 PM 75.0 °F - 73.0 °F 94% 29.95 in 10.0 mi South 8.1 mph - 0.01 in   Overcast
9:53 PM 75.0 °F - 72.0 °F 90% 29.95 in 10.0 mi South 8.1 mph - N/A   Overcast
10:53 PM 75.0 °F - 72.0 °F 90% 29.94 in 6.0 mi South 3.5 mph - 0.05 in Rain Light Rain
11:44 PM 73.4 °F - 71.6 °F 94% 29.96 in 1.8 mi SSW 8.1 mph - 0.20 in Rain Heavy Rain
11:51 PM 73.4 °F - 71.6 °F 94% 29.95 in 1.2 mi South 9.2 mph - 0.33 in Rain Heavy Rain
11:53 PM 72.0 °F - 71.1 °F 97% 29.95 in 1.5 mi South 4.6 mph - 0.35 in Rain Heavy Rain